Weather History for Clermont County, Batavia, OH

Change the Weather History Date:

Friday, January 31, 2014

  Actual Average (KLUK) Record (KLUK)
Temperature  
Mean Temperature 38 °F -  
Max Temperature 42 °F 41 °F 66 °F (2002)
Min Temperature 33 °F 24 °F -7 °F (2004)
Degree Days  
Heating Degree Days 28    
Moisture  
Dew Point 12 °F    
Average Humidity 34    
Maximum Humidity 48    
Minimum Humidity 29    
Precipitation  
Precipitation 0.00 in - - ()
Sea Level Pressure  
Sea Level Pressure 30.09 in    
Wind  
Wind Speed 6 mph (SSW)    
Max Wind Speed 10 mph    
Max Gust Speed -    
Visibility 10 miles    
Events      
Averages and records for this station are not official NWS values.
T = Trace of Precipitation, MM = Missing Value Source: NWS Daily Summary

Daily Weather History Graph

Daily Weather History Graph

Search for Another Location

Airport:

Trip Planner

Search our weather history database for the weather conditions in past years. The results will help you decide how hot, cold, wet, or windy it might be!

Date:

Astronomy

Jan. 31, 2014 Rise Set
Actual Time 7:44 AM EST 5:56 PM EST
Civil Twilight 7:16 AM EST 6:25 PM EST
Nautical Twilight 6:44 AM EST 6:57 PM EST
Astronomical Twilight 6:12 AM EST 7:28 PM EST
Moon 7:54 AM EST (1/31) 7:18 PM EST (1/31)
Length of Visible Light 11h 08m
Length of Day
10h 12m
New Moon, 1% of the Moon is Illuminated
Jan 31
New Moon
Feb 6
First Quarter
Feb 14
Full
Feb 22
Last Quarter
Mar 1
New

Hourly Weather History & Observations

Time (EST) Temp. Windchill Dew Point Humidity Pressure Visibility Wind Dir Wind Speed Gust Speed Precip Events Conditions
12:14 AM 33.8 °F 27.0 °F 8.6 °F 35% 30.01 in 10.0 mi SSW 8.1 mph - N/A   Overcast
12:35 AM 33.8 °F 27.7 °F 8.6 °F 35% 30.02 in 10.0 mi SW 6.9 mph - N/A   Overcast
12:55 AM 33.8 °F 27.0 °F 8.6 °F 35% 30.02 in 10.0 mi SW 8.1 mph - N/A   Overcast
1:14 AM 33.8 °F 27.0 °F 8.6 °F 35% 30.02 in 10.0 mi SW 8.1 mph - N/A   Overcast
1:35 AM 33.8 °F 27.0 °F 8.6 °F 35% 30.02 in 10.0 mi SW 8.1 mph - N/A   Overcast
1:55 AM 33.8 °F 27.0 °F 8.6 °F 35% 30.02 in 10.0 mi SW 8.1 mph - N/A   Overcast
2:14 AM 33.8 °F 27.0 °F 6.8 °F 32% 30.01 in 10.0 mi SW 8.1 mph - N/A   Overcast
2:35 AM 35.6 °F 29.2 °F 6.8 °F 30% 30.02 in 10.0 mi SSW 8.1 mph - N/A   Overcast
2:55 AM 35.6 °F 29.2 °F 6.8 °F 30% 30.02 in 10.0 mi SW 8.1 mph - N/A   Overcast
3:14 AM 35.6 °F 29.9 °F 6.8 °F 30% 30.03 in 10.0 mi SW 6.9 mph - N/A   Mostly Cloudy
3:35 AM 35.6 °F 29.2 °F 6.8 °F 30% 30.03 in 10.0 mi SW 8.1 mph - N/A   Mostly Cloudy
3:55 AM 35.6 °F 28.0 °F 6.8 °F 30% 30.03 in 10.0 mi SW 10.4 mph - N/A   Mostly Cloudy
4:14 AM 35.6 °F 29.2 °F 6.8 °F 30% 30.03 in 10.0 mi SW 8.1 mph - N/A   Mostly Cloudy
4:35 AM 35.6 °F 28.6 °F 6.8 °F 30% 30.03 in 10.0 mi SW 9.2 mph - N/A   Overcast
4:55 AM 35.6 °F 29.2 °F 6.8 °F 30% 30.04 in 10.0 mi SW 8.1 mph - N/A   Overcast
5:14 AM 35.6 °F 29.2 °F 8.6 °F 33% 30.06 in 10.0 mi WSW 8.1 mph - N/A   Overcast
5:35 AM 35.6 °F 30.7 °F 6.8 °F 30% 30.05 in 10.0 mi SW 5.8 mph - N/A   Overcast
5:55 AM 35.6 °F 29.9 °F 6.8 °F 30% 30.06 in 10.0 mi SW 6.9 mph - N/A   Overcast
6:14 AM 35.6 °F 29.9 °F 8.6 °F 33% 30.06 in 10.0 mi SW 6.9 mph - N/A   Overcast
6:35 AM 35.6 °F 29.9 °F 8.6 °F 33% 30.07 in 10.0 mi SW 6.9 mph - N/A   Overcast
6:55 AM 35.6 °F 31.7 °F 8.6 °F 33% 30.07 in 10.0 mi SW 4.6 mph - N/A   Overcast
7:14 AM 35.6 °F 32.8 °F 8.6 °F 33% 30.07 in 10.0 mi SSW 3.5 mph - N/A   Overcast
7:35 AM 35.6 °F 32.8 °F 8.6 °F 33% 30.09 in 10.0 mi SSW 3.5 mph - N/A   Overcast
7:55 AM 35.6 °F - 8.6 °F 33% 30.09 in 10.0 mi Calm Calm - N/A   Overcast
8:15 AM 35.6 °F 32.8 °F 8.6 °F 33% 30.10 in 10.0 mi SSW 3.5 mph - N/A   Overcast
8:35 AM 35.6 °F 32.8 °F 8.6 °F 33% 30.11 in 10.0 mi SSW 3.5 mph - N/A   Overcast
8:55 AM 35.6 °F 31.7 °F 8.6 °F 33% 30.11 in 10.0 mi SW 4.6 mph - N/A   Overcast
9:14 AM 35.6 °F 30.7 °F 10.4 °F 35% 30.11 in 10.0 mi SSW 5.8 mph - N/A   Overcast
9:35 AM 35.6 °F 29.2 °F 10.4 °F 35% 30.13 in 10.0 mi SW 8.1 mph - N/A   Overcast
9:55 AM 35.6 °F 29.9 °F 10.4 °F 35% 30.13 in 10.0 mi WSW 6.9 mph - N/A   Overcast
10:14 AM 35.6 °F 32.8 °F 10.4 °F 35% 30.13 in 10.0 mi SSW 3.5 mph - N/A   Overcast
10:35 AM 37.4 °F 34.9 °F 10.4 °F 33% 30.13 in 10.0 mi SW 3.5 mph - N/A   Overcast
10:55 AM 37.4 °F 32.8 °F 8.6 °F 30% 30.13 in 10.0 mi SW 5.8 mph - N/A   Overcast
11:14 AM 37.4 °F 34.9 °F 10.4 °F 33% 30.14 in 10.0 mi SW 3.5 mph - N/A   Overcast
11:35 AM 37.4 °F 32.8 °F 10.4 °F 33% 30.14 in 10.0 mi SW 5.8 mph - N/A   Overcast
11:55 AM 37.4 °F 32.8 °F 10.4 °F 33% 30.15 in 10.0 mi SW 5.8 mph - N/A   Overcast
12:14 PM 37.4 °F 33.8 °F 10.4 °F 33% 30.14 in 10.0 mi SW 4.6 mph - N/A   Overcast
12:35 PM 39.2 °F 35.9 °F 10.4 °F 31% 30.12 in 10.0 mi SW 4.6 mph - N/A   Overcast
12:55 PM 39.2 °F 33.6 °F 10.4 °F 31% 30.11 in 10.0 mi SW 8.1 mph - N/A   Overcast
1:14 PM 41.0 °F 38.0 °F 10.4 °F 29% 30.11 in 10.0 mi SW 4.6 mph - N/A   Overcast
1:35 PM 41.0 °F 38.0 °F 10.4 °F 29% 30.10 in 10.0 mi SW 4.6 mph - N/A   Overcast
1:55 PM 42.8 °F 39.3 °F 12.2 °F 29% 30.10 in 10.0 mi SW 5.8 mph - N/A   Overcast
2:14 PM 42.8 °F 40.1 °F 12.2 °F 29% 30.09 in 10.0 mi SSW 4.6 mph - N/A   Overcast
2:35 PM 41.0 °F 39.0 °F 12.2 °F 31% 30.10 in 10.0 mi SSW 3.5 mph - N/A   Overcast
2:55 PM 42.8 °F 40.1 °F 12.2 °F 29% 30.09 in 10.0 mi WSW 4.6 mph - N/A   Overcast
3:14 PM 42.8 °F 41.1 °F 12.2 °F 29% 30.09 in 10.0 mi SSW 3.5 mph - N/A   Overcast
3:35 PM 42.8 °F 41.1 °F 14.0 °F 31% 30.10 in 10.0 mi SW 3.5 mph - N/A   Overcast
3:55 PM 42.8 °F - 14.0 °F 31% 30.09 in 10.0 mi Calm Calm - N/A   Overcast
4:14 PM 42.8 °F - 12.2 °F 29% 30.10 in 10.0 mi Calm Calm - N/A   Overcast
4:35 PM 42.8 °F - 14.0 °F 31% 30.10 in 10.0 mi Calm Calm - N/A   Overcast
4:55 PM 42.8 °F - 15.8 °F 34% 30.09 in 10.0 mi Calm Calm - N/A   Overcast
5:14 PM 42.8 °F - 14.0 °F 31% 30.11 in 10.0 mi Calm Calm - N/A   Overcast
5:35 PM 41.0 °F - 14.0 °F 33% 30.10 in 10.0 mi Calm Calm - N/A   Overcast
5:55 PM 41.0 °F 39.0 °F 14.0 °F 33% 30.11 in 10.0 mi South 3.5 mph - N/A   Overcast
6:14 PM 41.0 °F 37.1 °F 15.8 °F 36% 30.11 in 10.0 mi SSW 5.8 mph - N/A   Overcast
6:35 PM 41.0 °F - 17.6 °F 39% 30.10 in 10.0 mi Calm Calm - N/A   Overcast
6:55 PM 41.0 °F - 14.0 °F 33% 30.12 in 10.0 mi Calm Calm - N/A   Overcast
7:14 PM 41.0 °F - 14.0 °F 33% 30.11 in 10.0 mi Calm Calm - N/A   Overcast
7:35 PM 39.2 °F 37.0 °F 15.8 °F 39% 30.12 in 10.0 mi SSE 3.5 mph - N/A   Overcast
7:55 PM 39.2 °F 37.0 °F 17.6 °F 42% 30.12 in 10.0 mi SSE 3.5 mph - N/A   Overcast
8:14 PM 39.2 °F - 15.8 °F 39% 30.12 in 10.0 mi Calm Calm - N/A   Overcast
8:35 PM 37.4 °F - 15.8 °F 41% 30.11 in 10.0 mi Calm Calm - N/A   Overcast
8:55 PM 37.4 °F - 15.8 °F 41% 30.11 in 10.0 mi Calm Calm - N/A   Overcast
9:14 PM 37.4 °F - 17.6 °F 45% 30.11 in 10.0 mi Calm Calm - N/A   Overcast
9:35 PM 37.4 °F 34.9 °F 17.6 °F 45% 30.10 in 10.0 mi SE 3.5 mph - N/A   Overcast
9:55 PM 37.4 °F - 17.6 °F 45% 30.10 in 10.0 mi Calm Calm - N/A   Overcast
10:14 PM 37.4 °F 34.9 °F 17.6 °F 45% 30.09 in 10.0 mi SE 3.5 mph - N/A   Overcast
10:35 PM 37.4 °F 34.9 °F 17.6 °F 45% 30.09 in 10.0 mi SE 3.5 mph - N/A   Overcast
10:55 PM 37.4 °F 34.9 °F 17.6 °F 45% 30.08 in 10.0 mi SE 3.5 mph - N/A   Overcast
11:14 PM 37.4 °F - 19.4 °F 48% 30.08 in 10.0 mi Calm Calm - N/A   Overcast
11:35 PM 37.4 °F - 19.4 °F 48% 30.08 in 10.0 mi Calm Calm - N/A   Overcast
11:55 PM 37.4 °F - 19.4 °F 48% 30.07 in 10.0 mi Calm Calm - N/A   Overcast